Regional Weather Roundup
Issued by NWS

Home | Current Version | Previous Version | Text Only | Print | Product List | Glossary On
Versions: 1 2 3 4 5 6 7 8 9 10 11 12 13 14 15 16 17 18 19 20 21 22 23 24 25 26 27 28 29 30 31 32 33 34 35 36 37 38 39 40 41 42 43 44 45 46 47 48 49 50
000
ASUS43 KMPX 301810
RWRMN
WEATHER ROUNDUP FOR MINNESOTA
NATIONAL WEATHER SERVICE TWIN CITIES/CHANHASSEN MN
100 PM CDT SUN AUG 30 2015


NOTE: "FAIR" INDICATES FEW OR NO CLOUDS BELOW 12,000 FEET WITH NO
SIGNIFICANT WEATHER AND/OR OBSTRUCTIONS TO VISIBILITY. N/A MEANS
CURRENT SKY AND/OR WEATHER CONDITIONS ARE NOT AVAILABLE.

MNZ060>063-068>070-301900-
   Twin Cities Metro

CITY           SKY/WX    TMP DP  RH WIND       PRES   REMARKS
TWIN CITIES    MOSUNNY   74  63  68 S12       29.98F
6HR MIN TEMP:  62; 6HR MAX TEMP:  75;

ST PAUL        SUNNY     73  63  70 S10       29.99F
CRYSTAL        SUNNY     77  62  59 S12       29.96F
BLAINE         SUNNY     73  63  68 SE10      29.97F
LAKEVILLE      SUNNY     72  64  78 S7        30.00F
EDEN PRAIRIE   SUNNY     75  64  68 S14       29.97F
6HR MIN TEMP:  62; 6HR MAX TEMP:  75;

SOUTH ST PAUL  SUNNY     74  62  67 S9        29.99F
LAKE ELMO      FAIR      72  64  78 S12       30.00F
$$
MNZ001>005-007-008-013>017-022>024-027-028-301900-
   Northwest Minnesota

CITY           SKY/WX    TMP DP  RH WIND       PRES   REMARKS
BEMIDJI        MOSUNNY   79  67  66 S12       29.85F
HALLOCK        MOSUNNY   81  70  69 S16G22    29.71F
ROSEAU         MOSUNNY   81  72  74 S9        29.77F
WARROAD        MOSUNNY   79  72  78 SE6       29.78F
THIEF RVR FALL MOSUNNY  N/A N/A N/A S14       29.78S
CROOKSTON      MOSUNNY   81  66  61 S18       29.77F
FOSSTON        MOSUNNY   81  63  54 S15       29.82F
DETROIT LAKES  SUNNY     79  64  61 S14       29.87F
MOORHEAD       SUNNY     79  64  61 S17       29.81F
PARK RAPIDS    SUNNY     79  65  62 S13       29.87F
MAHNOMEN       FAIR      80  66  62 S14       29.83F
$$
MNZ006-009>011-018-025>026-301900-
   North Central Minnesota

CITY           SKY/WX    TMP DP  RH WIND       PRES   REMARKS
BAUDETTE       MOSUNNY   79  68  69 S9        29.80F
FLAG ISLAND    MOSUNNY   70  64  83 S9        29.78F
INTL FALLS     PTSUNNY   76  68  76 VRB5      29.84F
6HR MIN TEMP:  63; 6HR MAX TEMP:  76;

WASKISH        MOSUNNY   79  68  69 SE7       29.83F
BIG FORK       MOSUNNY   79  66  65 S6        29.87F
LONGVILLE      SUNNY     73  64  73 S8        29.90S
GRAND RAPIDS     N/A     73  64  73 S9        29.90F
CRANE LAKE     SUNNY     73  66  78 SW5       29.87F
ORR            MOSUNNY   79  64  61 CALM      29.85S
COOK           SUNNY     77  66  69 S7        29.88S
WALKER         FAIR      76  66  71 SE7       29.87F
$$
MNZ012-019>021-037-301900-
   Northeast Minnesota

CITY           SKY/WX    TMP DP  RH WIND       PRES   REMARKS
DULUTH         SUNNY     76  64  66 SW13      29.92F
6HR MIN TEMP:  63; 6HR MAX TEMP:  77;

ELY            MOSUNNY   75  64  69 W8        29.89S
HIBBING        SUNNY     78  65  63 MISG      29.89F
EVELETH        SUNNY     77  66  69 S8        29.91S
DULUTH HARBOR  SUNNY     79  66  65 S10       29.90F
TWO HARBORS    SUNNY     79  68  69 S9        29.89F
SILVER BAY     SUNNY     75  66  73 S8        29.88S
GRAND MARAIS     N/A     59  55  87 W6        29.88F
G MARAIS ARPRT MOSUNNY   72  61  68 S7        29.92S
$$
MNZ029>031-032-039>041-046>048-054>057-064-301900-
   West Central Minnesota

CITY           SKY/WX    TMP DP  RH WIND       PRES   REMARKS
FERGUS FALLS   SUNNY     77  66  69 S12       29.85F
WHEATON        SUNNY     75  66  73 SE14      29.86F
MORRIS         SUNNY     79  66  65 SE14      29.88F
ALEXANDRIA     SUNNY     76  65  68 S10       29.92F
ELBOW LAKE     FAIR      75  67  74 S14G21    29.87F
WADENA         SUNNY     77  64  65 SE12      29.88F
GLENWOOD       SUNNY     77  66  69 SE12      29.93F
APPLETON       SUNNY     79  64  61 S12       29.89F
BENSON         SUNNY     77  64  65 S12       29.91F
ORTONVILLE     SUNNY     79  66  65 S12       29.87F
MADISON        SUNNY     79  66  65 S10       29.89F
WILLMAR        FAIR      77  66  69 SE9       29.95S
$$
MNZ033>034-036-042>043-049>051-058-059-301900-
   Central Minnesota

CITY           SKY/WX    TMP DP  RH WIND       PRES   REMARKS
ST CLOUD       SUNNY     73  63  70 S12       29.94F
6HR MIN TEMP:  59; 6HR MAX TEMP:  74;

SAUK CENTRE    FAIR      75  65  72 S7        29.93F
PAYNESVILLE    SUNNY     74  64  69 SE10      29.95S
AITKIN         SUNNY     73  64  73 S7        29.91F
PINE RIVER     SUNNY     73  64  73 S7        29.93F
BRAINERD       SUNNY     73  63  70 S12       29.92F
STAPLES        SUNNY     75  64  69 S8        29.90F
LONG PRAIRIE   FAIR      73  64  73 SE12      29.93F
LITTLE FALLS   SUNNY     73  61  64 S10       29.93F
LITCHFIELD     SUNNY     75  66  73 SE5       29.96F
BUFFALO        SUNNY     73  62  69 S7        29.98F
MAPLE LAKE     SUNNY     74  66  77 S7        29.97F
$$
MNZ037-044-045-052-053-301900-
   East Central Minnesota

CITY           SKY/WX    TMP DP  RH WIND       PRES   REMARKS
PRINCETON      SUNNY     75  64  69 S10       29.96S
MORA           SUNNY     70  61  73 SW10      29.97F
CAMBRIDGE      SUNNY     77  63  61 S7        29.94F
RUSH CITY      SUNNY     74  63  68 S8        29.96S
MOOSE LAKE     SUNNY     73  63  68 SW7       29.92S
HINCKLEY       FAIR      73  64  73 S9        29.95F
CLOQUET        SUNNY     75  63  64 SW9       29.92F
MCGREGOR       SUNNY     73  63  68 SW10      29.93F
$$
MNZ071>073-080-081-089-090-097-098-301900-
   Southwest Minnesota

CITY           SKY/WX    TMP DP  RH WIND       PRES   REMARKS
MONTEVIDEO     SUNNY     79  66  65 S12       29.93F
GRANITE FALLS  SUNNY     76  65  70 SE13      29.94F
CANBY          SUNNY     81  64  55 S10       29.91F
MARSHALL       SUNNY     77  63  61 S15       29.95F
REDWOOD FALLS  SUNNY     77  65  66 S15       29.95F
OLIVIA         SUNNY     73  63  68 S12G17    29.94F
PIPESTONE      SUNNY     72  63  73 S12       29.97F
WINDOM         SUNNY     75  63  64 S8        29.99F
WORTHINGTON    SUNNY     72  63  73 S14       30.00F
JACKSON        SUNNY     73  64  73 S15       30.02S
TRACY          SUNNY     75  66  72 S10       29.96F
SLAYTON        SUNNY     73  65  76 S9        29.99F
$$
MNZ065>067-074>077-082>085-091>093-301900-
   South Central Minnesota

CITY           SKY/WX    TMP DP  RH WIND       PRES   REMARKS
MANKATO        SUNNY     72  63  73 S13       30.00F
NEW ULM        SUNNY     73  64  73 S12       29.97F
ST JAMES       SUNNY     73  66  78 S14       29.99F
FAIRMONT       SUNNY     72  61  68 S14       30.00F
GLENCOE        SUNNY     75  66  72 S7        29.97F
FARIBAULT      SUNNY     73  64  73 S8        30.02F
OWATONNA       SUNNY     72  63  73 S9        30.03S
WASECA         SUNNY     72  64  78 S13       30.03F
ALBERT LEA     PTSUNNY   70  63  78 S8        30.04F
$$
MNZ078>079-086>088-094>096-301900-
   Southeast Minnesota

CITY           SKY/WX    TMP DP  RH WIND       PRES   REMARKS
ROCHESTER      CLOUDY    68  63  84 S13       30.06F
6HR MIN TEMP:  56; 6HR MAX TEMP:  68;

RED WING       MOSUNNY   75  63  64 S9        30.00F
STANTON        SUNNY     74  64  70 S9        30.00S
DODGE CENTER   PTSUNNY   70  64  83 S9        30.05S
WINONA         CLOUDY    70  63  78 SW8       30.05F
AUSTIN         CLOUDY    70  63  78 S10       30.06S
PRESTON        CLOUDY    67  61  81 SW9       30.07S
$$
ABBREVIATIONS USED IN REMARKS
   TC - TEMPERATURES IN CELSIUS
  WCI - WIND CHILL INDEX
   HX - HEAT INDEX
  VSB - VISIBILITY
$$



USA.gov is the U.S. government's official web portal to all federal, state and local government web resources and services.